| time (UTC) | temp F | wind direction | speed MPH | gust MPH | rain 1hr in | rain 24hr in | rain mn in | humidity % | barometer mb |
| 20260502130125 | 59 | 0 | 3.0 | 4.0 | 0.00 | 0.00 | 0.00 | 55 | 1015.8 |
| 20260502123135 | 59 | 295 | 0.0 | 1.0 | 0.00 | 0.00 | 0.00 | 53 | 1015.8 |
| 20260502122135 | 60 | 12 | 2.0 | 3.0 | 0.00 | 0.00 | 0.00 | 52 | 1015.6 |
| 20260502121156 | 58 | 23 | 3.0 | 4.0 | 0.00 | 0.00 | 0.00 | 55 | 1015.5 |
| 20260502120131 | 58 | 296 | 2.0 | 2.0 | 0.00 | 0.00 | 0.00 | 56 | 1015.6 |
| 20260502115154 | 58 | 18 | 2.0 | 3.0 | 0.00 | 0.00 | 0.00 | 55 | 1015.7 |
| 20260502114149 | 58 | 325 | 3.0 | 3.0 | 0.00 | 0.00 | 0.00 | 55 | 1015.7 |
| 20260502113126 | 59 | 329 | 3.0 | 4.0 | 0.00 | 0.00 | 0.00 | 55 | 1015.6 |
| 20260502112124 | 60 | 190 | 1.0 | 2.0 | 0.00 | 0.00 | 0.00 | 52 | 1015.5 |
| 20260502111130 | 59 | 0.0 | 1.0 | 0.00 | 0.00 | 0.00 | 53 | 1015.6 | |
| 20260502110143 | 60 | 253 | 3.0 | 4.0 | 0.00 | 0.00 | 0.00 | 53 | 1015.5 |
| 20260502105131 | 60 | 225 | 2.0 | 2.0 | 0.00 | 0.00 | 0.00 | 52 | 1015.5 |
| 20260502104133 | 60 | 218 | 4.0 | 5.0 | 0.00 | 0.00 | 0.00 | 52 | 1015.4 |
| 20260502103126 | 60 | 221 | 2.0 | 2.0 | 0.00 | 0.00 | 0.00 | 53 | 1015.4 |
| 20260502102126 | 61 | 0.0 | 1.0 | 0.00 | 0.00 | 0.00 | 49 | 1015.4 | |
| 20260502101128 | 61 | 191 | 2.0 | 2.0 | 0.00 | 0.00 | 0.00 | 49 | 1015.3 |
| 20260502100118 | 61 | 95 | 1.0 | 2.0 | 0.00 | 0.00 | 0.00 | 50 | 1015.3 |
| 20260502091153 | 62 | 193 | 1.0 | 1.0 | 0.00 | 0.00 | 0.00 | 47 | 1015.2 |
| 20260502090127 | 61 | 193 | 1.0 | 2.0 | 0.00 | 0.00 | 0.00 | 48 | 1015.5 |
| 20260502071124 | 63 | 309 | 4.0 | 5.0 | 0.00 | 0.00 | 0.00 | 49 | 1015.3 |
| 20260502070119 | 63 | 307 | 4.0 | 4.0 | 0.00 | 0.00 | 0.00 | 48 | 1015.3 |
| 20260502065142 | 62 | 304 | 4.0 | 5.0 | 0.00 | 0.00 | 0.00 | 50 | 1015.2 |
| 20260502064135 | 62 | 304 | 4.0 | 5.0 | 0.00 | 0.00 | 0.00 | 50 | 1015.2 |
| 20260502063134 | 62 | 323 | 5.0 | 6.0 | 0.00 | 0.00 | 0.00 | 50 | 1015.3 |
| 20260502062134 | 62 | 313 | 5.0 | 6.0 | 0.00 | 0.00 | 0.00 | 51 | 1015.2 |
| 20260502061131 | 63 | 310 | 5.0 | 7.0 | 0.00 | 0.00 | 0.00 | 50 | 1015.2 |
| 20260502060147 | 63 | 309 | 5.0 | 6.0 | 0.00 | 0.00 | 0.00 | 50 | 1015.2 |
| 20260502055143 | 64 | 307 | 5.0 | 6.0 | 0.00 | 0.00 | 0.00 | 47 | 1015.2 |
| 20260502054125 | 64 | 317 | 4.0 | 5.0 | 0.00 | 0.00 | 0.00 | 49 | 1015.2 |
| 20260502053124 | 64 | 306 | 5.0 | 6.0 | 0.00 | 0.00 | 0.00 | 46 | 1015.2 |
| 20260502052156 | 68 | 318 | 4.0 | 4.0 | 0.00 | 0.00 | 0.00 | 41 | 1015.2 |
| 20260502051137 | 69 | 295 | 4.0 | 4.0 | 0.00 | 0.00 | 0.00 | 38 | 1015.1 |
| 20260502050131 | 69 | 313 | 4.0 | 4.0 | 0.00 | 0.00 | 0.00 | 38 | 1015.2 |
| 20260502045209 | 68 | 308 | 4.0 | 4.0 | 0.00 | 0.00 | 0.00 | 39 | 1015.1 |
| 20260502044129 | 69 | 300 | 4.0 | 4.0 | 0.00 | 0.00 | 0.00 | 38 | 1015.3 |
| 20260502043127 | 69 | 307 | 3.0 | 4.0 | 0.00 | 0.00 | 0.00 | 39 | 1015.2 |
| 20260502042122 | 69 | 323 | 4.0 | 4.0 | 0.00 | 0.00 | 0.00 | 41 | 1015.1 |
| 20260502041144 | 68 | 301 | 4.0 | 4.0 | 0.00 | 0.00 | 0.00 | 41 | 1015.1 |
| 20260502040141 | 68 | 314 | 5.0 | 6.0 | 0.00 | 0.00 | 0.00 | 41 | 1015.0 |
| 20260502035239 | 70 | 328 | 2.0 | 2.0 | 0.00 | 0.00 | 0.00 | 36 | 1015.0 |
| 20260502034156 | 71 | 352 | 1.0 | 2.0 | 0.00 | 0.00 | 0.00 | 35 | 1014.9 |
| 20260502033129 | 71 | 26 | 2.0 | 3.0 | 0.00 | 0.00 | 0.00 | 34 | 1014.8 |
| 20260502032128 | 71 | 0.0 | 0.0 | 0.00 | 0.00 | 0.00 | 32 | 1014.9 | |
| 20260502031129 | 71 | 13 | 0.0 | 1.0 | 0.00 | 0.00 | 0.00 | 34 | 1014.7 |
| 20260502030126 | 72 | 355 | 2.0 | 3.0 | 0.00 | 0.00 | 0.00 | 33 | 1014.6 |
| 20260502025123 | 73 | 311 | 0.0 | 2.0 | 0.00 | 0.00 | 0.00 | 31 | 1014.6 |
| 20260502024123 | 73 | 1 | 2.0 | 2.0 | 0.00 | 0.00 | 0.00 | 32 | 1014.5 |
| 20260502023137 | 73 | 358 | 2.0 | 3.0 | 0.00 | 0.00 | 0.00 | 33 | 1014.5 |
| 20260502022136 | 74 | 3 | 4.0 | 4.0 | 0.00 | 0.00 | 0.00 | 33 | 1014.6 |
| 20260502021131 | 75 | 4 | 2.0 | 3.0 | 0.00 | 0.00 | 0.00 | 33 | 1014.5 |
| 20260502020133 | 75 | 360 | 2.0 | 2.0 | 0.00 | 0.00 | 0.00 | 33 | 1014.5 |
| 20260502015128 | 75 | 358 | 2.0 | 2.0 | 0.00 | 0.00 | 0.00 | 34 | 1014.7 |
| 20260502014151 | 76 | 4 | 4.0 | 5.0 | 0.00 | 0.00 | 0.00 | 32 | 1014.9 |
| 20260502013128 | 76 | 19 | 5.0 | 6.0 | 0.00 | 0.00 | 0.00 | 31 | 1014.7 |
| 20260502012124 | 77 | 352 | 4.0 | 6.0 | 0.00 | 0.00 | 0.00 | 29 | 1014.8 |
| 20260502011125 | 77 | 359 | 5.0 | 7.0 | 0.00 | 0.00 | 0.00 | 28 | 1014.9 |
| 20260502010135 | 78 | 14 | 5.0 | 8.0 | 0.00 | 0.00 | 0.00 | 27 | 1015.0 |
| 20260502005138 | 78 | 32 | 6.0 | 8.0 | 0.00 | 0.00 | 0.00 | 27 | 1015.1 |
| 20260502004133 | 78 | 359 | 7.0 | 8.0 | 0.00 | 0.00 | 0.00 | 27 | 1015.1 |
| 20260502003131 | 78 | 355 | 6.0 | 8.0 | 0.00 | 0.00 | 0.00 | 27 | 1015.1 |
| 20260502002133 | 78 | 359 | 7.0 | 9.0 | 0.00 | 0.00 | 0.00 | 27 | 1015.4 |
| 20260502001133 | 79 | 19 | 8.0 | 10.0 | 0.00 | 0.00 | 0.00 | 27 | 1015.3 |
| 20260502000123 | 79 | 2 | 7.0 | 11.0 | 0.00 | 0.00 | 0.00 | 27 | 1015.5 |
| 20260501235122 | 79 | 28 | 4.0 | 6.0 | 0.00 | 0.00 | 0.00 | 26 | 1015.3 |
| 20260501234123 | 79 | 15 | 4.0 | 5.0 | 0.00 | 0.00 | 0.00 | 26 | 1015.4 |
| 20260501233157 | 80 | 11 | 6.0 | 9.0 | 0.00 | 0.00 | 0.00 | 26 | 1015.6 |
| 20260501232134 | 80 | 55 | 5.0 | 9.0 | 0.00 | 0.00 | 0.00 | 26 | 1015.7 |
| 20260501231135 | 79 | 31 | 5.0 | 9.0 | 0.00 | 0.00 | 0.00 | 27 | 1015.8 |
| 20260501230132 | 79 | 7 | 7.0 | 10.0 | 0.00 | 0.00 | 0.00 | 25 | 1015.8 |
| 20260501225131 | 79 | 93 | 4.0 | 5.0 | 0.00 | 0.00 | 0.00 | 25 | 1016.0 |
| 20260501224151 | 78 | 50 | 4.0 | 6.0 | 0.00 | 0.00 | 0.00 | 26 | 1016.1 |
| 20260501223122 | 78 | 12 | 4.0 | 5.0 | 0.00 | 0.00 | 0.00 | 26 | 1016.2 |
| 20260501222122 | 79 | 67 | 7.0 | 10.0 | 0.00 | 0.00 | 0.00 | 27 | 1016.4 |
| 20260501221138 | 78 | 103 | 2.0 | 4.0 | 0.00 | 0.00 | 0.00 | 28 | 1016.7 |
| 20260501220134 | 78 | 113 | 3.0 | 4.0 | 0.00 | 0.00 | 0.00 | 28 | 1016.8 |
| 20260501215137 | 78 | 78 | 3.0 | 5.0 | 0.00 | 0.00 | 0.00 | 29 | 1017.0 |
| 20260501214131 | 77 | 85 | 4.0 | 6.0 | 0.00 | 0.00 | 0.00 | 29 | 1017.3 |
| 20260501213149 | 77 | 75 | 5.0 | 6.0 | 0.00 | 0.00 | 0.00 | 31 | 1017.3 |
| 20260501212128 | 76 | 59 | 3.0 | 5.0 | 0.00 | 0.00 | 0.00 | 31 | 1017.4 |
| 20260501211123 | 76 | 113 | 3.0 | 6.0 | 0.00 | 0.00 | 0.00 | 29 | 1018.0 |
| 20260501210121 | 76 | 68 | 8.0 | 10.0 | 0.00 | 0.00 | 0.00 | 30 | 1017.7 |
| 20260501205121 | 75 | 9 | 6.0 | 9.0 | 0.00 | 0.00 | 0.00 | 29 | 1017.8 |
| 20260501204136 | 74 | 45 | 6.0 | 9.0 | 0.00 | 0.00 | 0.00 | 30 | 1018.1 |
| 20260501203134 | 74 | 64 | 3.0 | 6.0 | 0.00 | 0.00 | 0.00 | 31 | 1018.3 |
| 20260501202135 | 74 | 8 | 3.0 | 5.0 | 0.00 | 0.00 | 0.00 | 30 | 1018.4 |
| 20260501201132 | 73 | 48 | 5.0 | 9.0 | 0.00 | 0.00 | 0.00 | 27 | 1018.6 |
| 20260501200128 | 73 | 35 | 6.0 | 9.0 | 0.00 | 0.00 | 0.00 | 28 | 1018.5 |
| 20260501195207 | 73 | 26 | 5.0 | 7.0 | 0.00 | 0.00 | 0.00 | 26 | 1018.7 |
| 20260501194122 | 73 | 33 | 7.0 | 9.0 | 0.00 | 0.00 | 0.00 | 31 | 1018.6 |
| 20260501193124 | 72 | 348 | 3.0 | 6.0 | 0.00 | 0.00 | 0.00 | 32 | 1018.8 |
| 20260501192123 | 72 | 343 | 4.0 | 6.0 | 0.00 | 0.00 | 0.00 | 32 | 1018.9 |
| 20260501191216 | 71 | 58 | 1.0 | 3.0 | 0.00 | 0.00 | 0.00 | 34 | 1019.0 |
| 20260501190137 | 71 | 53 | 4.0 | 7.0 | 0.00 | 0.00 | 0.00 | 33 | 1019.0 |
| 20260501185133 | 71 | 5 | 3.0 | 5.0 | 0.00 | 0.00 | 0.00 | 34 | 1019.1 |
| 20260501184132 | 70 | 54 | 5.0 | 7.0 | 0.00 | 0.00 | 0.00 | 36 | 1019.2 |
| 20260501183127 | 69 | 124 | 1.0 | 2.0 | 0.00 | 0.00 | 0.00 | 36 | 1019.3 |
| 20260501182135 | 70 | 298 | 2.0 | 3.0 | 0.00 | 0.00 | 0.00 | 35 | 1019.4 |
| 20260501181125 | 70 | 39 | 4.0 | 6.0 | 0.00 | 0.00 | 0.00 | 38 | 1019.2 |
| 20260501180125 | 68 | 21 | 6.0 | 7.0 | 0.00 | 0.00 | 0.00 | 38 | 1019.3 |
| 20260501175118 | 68 | 346 | 5.0 | 8.0 | 0.00 | 0.00 | 0.00 | 38 | 1019.4 |
| 20260501174157 | 67 | 351 | 4.0 | 4.0 | 0.00 | 0.00 | 0.00 | 40 | 1019.3 |
| 20260501173155 | 67 | 329 | 2.0 | 5.0 | 0.00 | 0.00 | 0.00 | 41 | 1019.6 |
| 20260501172135 | 66 | 351 | 4.0 | 5.0 | 0.00 | 0.00 | 0.00 | 42 | 1019.5 |
| 20260501171131 | 65 | 40 | 4.0 | 6.0 | 0.00 | 0.00 | 0.00 | 42 | 1019.4 |
| 20260501170150 | 65 | 38 | 3.0 | 4.0 | 0.00 | 0.00 | 0.00 | 41 | 1019.5 |
| 20260501165124 | 64 | 183 | 2.0 | 3.0 | 0.00 | 0.00 | 0.00 | 41 | 1019.6 |
| 20260501164126 | 64 | 62 | 2.0 | 4.0 | 0.00 | 0.00 | 0.00 | 42 | 1019.6 |
| 20260501163120 | 64 | 5 | 5.0 | 6.0 | 0.00 | 0.00 | 0.00 | 42 | 1019.6 |
| 20260501162122 | 63 | 341 | 2.0 | 4.0 | 0.00 | 0.00 | 0.00 | 41 | 1019.7 |
| 20260501161139 | 62 | 281 | 1.0 | 4.0 | 0.00 | 0.00 | 0.00 | 43 | 1019.6 |
| 20260501160156 | 62 | 299 | 3.0 | 5.0 | 0.00 | 0.00 | 0.00 | 42 | 1019.7 |
| 20260501154130 | 61 | 352 | 3.0 | 4.0 | 0.00 | 0.00 | 0.00 | 43 | 1019.8 |
| 20260501153126 | 60 | 20 | 2.0 | 4.0 | 0.00 | 0.00 | 0.00 | 45 | 1019.9 |
| 20260501152126 | 60 | 17 | 3.0 | 4.0 | 0.00 | 0.00 | 0.00 | 45 | 1019.8 |
| 20260501151127 | 59 | 355 | 4.0 | 5.0 | 0.00 | 0.00 | 0.00 | 46 | 1019.7 |
| 20260501150120 | 59 | 355 | 3.0 | 4.0 | 0.00 | 0.00 | 0.00 | 47 | 1019.6 |
| 20260501145138 | 58 | 7 | 2.0 | 4.0 | 0.00 | 0.00 | 0.00 | 47 | 1019.5 |
| 20260501144139 | 57 | 325 | 3.0 | 4.0 | 0.00 | 0.00 | 0.00 | 49 | 1019.4 |
| 20260501143205 | 56 | 319 | 4.0 | 4.0 | 0.00 | 0.00 | 0.00 | 51 | 1019.4 |
| 20260501142131 | 55 | 330 | 5.0 | 6.0 | 0.00 | 0.00 | 0.00 | 53 | 1019.3 |